Location: Val de Santo Domingo
(40.0124°N, 4.3273°W)
Time: 04:34:42
(UTC+00:00)

Meteor 2-20 Rocket - Pass Details

Date: 18 July 2025
Orbit: 871 x 1024 km, 82.5° (Epoch: 12 April)

Event Time Altitude Azimuth Distance (km) Brightness Sun altitude
Rises 23:13:28 0° 351° (N) 3,593 8.7 -27.0°
Reaches altitude 10° 23:16:00 10° 350° (N) 2,624 7.7 -27.1°
Maximum altitude 23:21:57 81° 264° (W) 912 4.2 -27.5°
Enters shadow 23:22:19 77° 215° (SW) 923 4.2 -27.5°
